Weather in Brut

Russia / Republic of North Ossetia — Alania     43°15′54″N   44°26′45″E
temp.,
°C
wind,
m/s
gust,
m/s
humid.,
%
clouds,
%
prec.,
mm/h
press.,
hPa
HPBL,
m
21 january, fri
fri2100:00−10ese119876 0.0 102411
03:00−11se2291100 0.0 102517
06:00−7ese1179100 0.0 102437
09:00−5se11715 0.0 102345
12:00+2ene35690 0.0 1020285
15:00+2ene36680 0.0 1019219
18:00−4e24812 0.0 101947
21:00−5ese22875 0.0 101919
22 january, sat
sat2200:00−6ese22822 0.0 101921
03:00−6ese22795 0.0 101716
06:00−6ese22762 0.0 101417
09:00−2se2271100 0.0 101337
12:00+4nw235497 0.0 1012170
15:00+3wnw3454100 0.0 1014365
18:00−2w2384100 0.0 101731
21:00−2w1293100 0.0 101650
23 january, sun
sun2300:00−2wnw1194100 0.0 101545
03:00−2nw1295100 0.0 101444
06:00−3wnw1196100 0.0 101332
09:00−2ese1292100 0.0 1012114
12:00+1ne22739 0.0 1010481
15:00+2ne226916 0.0 1010569
18:00−1nne1184100 0.0 101210
21:00−2ene0088100 0.0 101310
24 january, mon
mon2400:00−2nw009086 0.0 101410
03:00−3w11918 0.0 101510
06:00−3se119393 0.0 101510
09:00−1nne11827 0.0 101658
12:00+3nnw22655 0.0 1016404
15:00+3nw226634 0.0 1018545
18:00−1s118359 0.0 102010
21:00−1wnw1185100 0.0 102111
25 january, tue
tue2500:00−1ese1184100 0.0 102110
03:00−2w01875 0.0 102110
06:00−2wnw119193 0.0 102114
09:00−1w2287100 0.0 1022141
12:000w239398 0.9 1023253
15:000w249599 1.3 1024334
18:00−1nnw1398100 0.3 1026209
21:00−2ene119542 0.2 102611